Location: *
(46.3500°N, 10.9000°E)
Time: 22:21:04
(UTC+00:00)

A-11 Canister half - Pass Details

Date: 28 April 2021
Orbit: 1526 x 1682 km, 47.3° (Epoch: 13 May)

Event Time Altitude Azimuth Distance (km) Brightness Sun altitude
Rises 16:37:10 0° 284° (WNW) 4,897 13.3 16.6°
Reaches altitude 10° 16:40:18 10° 284° (WNW) 3,923 13.4 16.1°
Maximum altitude 16:50:27 83° 198° (SSW) 1,695 9.6 14.4°
Drops below altitude 10° 17:00:37 10° 112° (ESE) 3,933 10.6 12.6°
Sets 17:03:45 0° 112° (ESE) 4,910 11.0 12.1°
